• In United Kingdom
  • List of Countries
  • For 7 days
  • Water Temperature
  • Satellite Maps
  • Weather Map
  • Weather Widgets
  • user-avatar
    Login

    Hourly Weather Mayrhofen

    Today, 29 May, Monday

    Time Temperature Precipitation Wind Pressure Humidity
    00:00 +7°C° 0 mm 1 mps 619 mmHg 87%
    01:00 +7°C° 0 mm 1 mps 619 mmHg 83%
    02:00 +7°C° 0 mm 1 mps 619 mmHg 84%
    03:00 +6°C° 0 mm 1 mps 619 mmHg 86%
    04:00 +6°C° 0 mm 1 mps 618 mmHg 87%
    05:00 +9°C° 0 mm 1 mps 619 mmHg 84%
    06:00 +11°C° 0 mm 1 mps 620 mmHg 80%
    07:00 +14°C° 0 mm 1 mps 621 mmHg 77%
    08:00 +16°C° 0 mm 1 mps 622 mmHg 67%
    09:00 +19°C° 0 mm 1 mps 622 mmHg 56%
    10:00 +21°C° 0 mm 1 mps 623 mmHg 46%
    11:00 +21°C° 0 mm 1 mps 623 mmHg 44%
    12:00 +22°C° 0 mm 1 mps 623 mmHg 42%
    13:00 +23°C° 0 mm 1 mps 623 mmHg 39%
    14:00 +22°C° 0.1 mm 1 mps 623 mmHg 42%
    15:00 +22°C° 0.1 mm 1 mps 622 mmHg 44%
    16:00 +21°C° 0.1 mm 1 mps 622 mmHg 47%
    17:00 +19°C° 0.3 mm 1 mps 621 mmHg 59%
    18:00 +18°C° 0.3 mm 1 mps 620 mmHg 70%
    19:00 +15°C° 0.3 mm 1 mps 619 mmHg 82%
    20:00 +13°C° 0.3 mm 1 mps 619 mmHg 86%
    21:00 +11°C° 0.3 mm 1 mps 618 mmHg 89%
    22:00 +9°C° 0.3 mm 1 mps 618 mmHg 93%
    23:00 +9°C° 0.2 mm 1 mps 618 mmHg 93%

    Tomorrow, 30 May, Tuesday

    Time Temperature Precipitation Wind Pressure Humidity
    00:00 +8°C° 0.2 mm 1 mps 618 mmHg 93%
    01:00 +8°C° 0.2 mm 1 mps 618 mmHg 93%
    02:00 +8°C° 0.1 mm 1 mps 617 mmHg 93%
    03:00 +7°C° 0.1 mm 1 mps 617 mmHg 93%
    04:00 +7°C° 0.1 mm 1 mps 617 mmHg 93%
    05:00 +9°C° 0 mm 1 mps 618 mmHg 89%
    06:00 +11°C° 0 mm 0 mps 619 mmHg 84%
    07:00 +13°C° 0 mm 0 mps 620 mmHg 80%
    08:00 +14°C° 0.2 mm 0 mps 621 mmHg 75%
    09:00 +18°C° 0.2 mm 1 mps 621 mmHg 69%
    10:00 +19°C° 0.2 mm 1 mps 622 mmHg 64%
    11:00 +20°C° 0.8 mm 1 mps 622 mmHg 65%
    12:00 +20°C° 0.8 mm 1 mps 622 mmHg 66%
    13:00 +20°C° 0.8 mm 1 mps 622 mmHg 67%
    14:00 +19°C° 1.5 mm 1 mps 621 mmHg 70%
    15:00 +19°C° 1.5 mm 1 mps 621 mmHg 73%
    16:00 +19°C° 1.5 mm 1 mps 621 mmHg 75%
    17:00 +16°C° 1.4 mm 1 mps 621 mmHg 81%
    18:00 +15°C° 1.4 mm 1 mps 621 mmHg 87%
    19:00 +14°C° 1.4 mm 1 mps 620 mmHg 92%
    20:00 +13°C° 1.4 mm 1 mps 620 mmHg 94%
    21:00 +12°C° 1.4 mm 1 mps 620 mmHg 96%
    22:00 +11°C° 1.4 mm 1 mps 620 mmHg 98%
    23:00 +10°C° 0.6 mm 1 mps 620 mmHg 98%

    Day after tomorrow, 31 May, Wednesday

    Time Temperature Precipitation Wind Pressure Humidity
    00:00 +10°C° 0.6 mm 1 mps 620 mmHg 98%
    01:00 +10°C° 0.6 mm 1 mps 620 mmHg 98%
    02:00 +9°C° 0.1 mm 1 mps 620 mmHg 97%
    03:00 +9°C° 0.1 mm 1 mps 620 mmHg 97%
    04:00 +8°C° 0.1 mm 1 mps 619 mmHg 97%
    05:00 +10°C° 0 mm 1 mps 620 mmHg 95%
    06:00 +10°C° 0 mm 0 mps 621 mmHg 93%
    07:00 +11°C° 0 mm 0 mps 621 mmHg 90%
    08:00 +13°C° 0.1 mm 0 mps 622 mmHg 83%
    09:00 +15°C° 0.1 mm 0 mps 623 mmHg 76%
    10:00 +16°C° 0.1 mm 0 mps 623 mmHg 69%
    11:00 +18°C° 0.6 mm 1 mps 623 mmHg 69%
    12:00 +19°C° 0.6 mm 1 mps 623 mmHg 69%
    13:00 +19°C° 0.6 mm 1 mps 623 mmHg 70%
    14:00 +18°C° 0.9 mm 1 mps 623 mmHg 72%
    15:00 +18°C° 0.9 mm 1 mps 622 mmHg 74%
    16:00 +16°C° 0.9 mm 1 mps 622 mmHg 77%
    17:00 +15°C° 0.9 mm 1 mps 622 mmHg 82%
    18:00 +14°C° 0.9 mm 1 mps 621 mmHg 87%
    19:00 +12°C° 0.9 mm 0 mps 621 mmHg 92%
    20:00 +11°C° 0.9 mm 0 mps 621 mmHg 94%
    21:00 +9°C° 0.9 mm 0 mps 620 mmHg 96%
    22:00 +8°C° 0.9 mm 0 mps 620 mmHg 98%
    23:00 +8°C° 0.5 mm 0 mps 620 mmHg 98%

    1 June, Thursday

    Time Temperature Precipitation Wind Pressure Humidity
    00:00 +8°C° 0.5 mm 0 mps 620 mmHg 98%
    01:00 +8°C° 0.5 mm 0 mps 620 mmHg 99%
    02:00 +8°C° 0.4 mm 0 mps 619 mmHg 99%
    03:00 +7°C° 0.4 mm 0 mps 619 mmHg 99%
    04:00 +7°C° 0.4 mm 0 mps 619 mmHg 98%
    05:00 +8°C° 0.3 mm 0 mps 620 mmHg 96%
    06:00 +10°C° 0.3 mm 0 mps 620 mmHg 93%
    07:00 +11°C° 0.3 mm 0 mps 621 mmHg 90%
    08:00 +12°C° 0.2 mm 0 mps 622 mmHg 83%
    09:00 +13°C° 0.2 mm 0 mps 622 mmHg 77%
    10:00 +15°C° 0.2 mm 1 mps 623 mmHg 71%
    11:00 +16°C° 0.2 mm 1 mps 622 mmHg 70%
    12:00 +16°C° 0.2 mm 1 mps 622 mmHg 69%
    13:00 +18°C° 0.2 mm 1 mps 622 mmHg 67%
    14:00 +16°C° 0.7 mm 1 mps 622 mmHg 70%
    15:00 +16°C° 0.7 mm 1 mps 622 mmHg 72%
    16:00 +16°C° 0.7 mm 1 mps 622 mmHg 75%
    17:00 +15°C° 1 mm 1 mps 621 mmHg 80%
    18:00 +14°C° 1 mm 1 mps 621 mmHg 86%
    19:00 +13°C° 1 mm 1 mps 621 mmHg 92%
    20:00 +10°C° 0.9 mm 0 mps 620 mmHg 94%
    21:00 +9°C° 0.9 mm 0 mps 620 mmHg 96%
    22:00 +7°C° 0.9 mm 0 mps 620 mmHg 98%
    23:00 +7°C° 0.4 mm 0 mps 619 mmHg 98%

    2 June, Friday

    Time Temperature Precipitation Wind Pressure Humidity
    00:00 +7°C° 0.4 mm 0 mps 619 mmHg 98%
    01:00 +7°C° 0.4 mm 0 mps 619 mmHg 98%
    02:00 +7°C° 0.1 mm 0 mps 619 mmHg 98%
    03:00 +7°C° 0.1 mm 0 mps 619 mmHg 98%
    04:00 +7°C° 0.1 mm 0 mps 619 mmHg 98%
    05:00 +8°C° 0 mm 0 mps 620 mmHg 95%
    06:00 +9°C° 0 mm 0 mps 620 mmHg 92%
    07:00 +11°C° 0 mm 0 mps 621 mmHg 89%
    08:00 +12°C° 0.2 mm 0 mps 621 mmHg 83%
    09:00 +14°C° 0.2 mm 0 mps 622 mmHg 77%
    10:00 +16°C° 0.2 mm 1 mps 622 mmHg 70%
    11:00 +16°C° 0.8 mm 1 mps 622 mmHg 71%
    12:00 +18°C° 0.8 mm 1 mps 622 mmHg 71%
    13:00 +18°C° 0.8 mm 1 mps 622 mmHg 71%
    14:00 +18°C° 1.3 mm 1 mps 622 mmHg 73%
    15:00 +16°C° 1.3 mm 1 mps 621 mmHg 76%
    16:00 +16°C° 1.3 mm 1 mps 621 mmHg 79%
    17:00 +15°C° 1.8 mm 1 mps 621 mmHg 83%
    18:00 +14°C° 1.8 mm 1 mps 620 mmHg 88%
    19:00 +12°C° 1.8 mm 0 mps 620 mmHg 93%
    20:00 +11°C° 0.7 mm 0 mps 620 mmHg 94%
    21:00 +10°C° 0.7 mm 1 mps 619 mmHg 95%
    22:00 +9°C° 0.7 mm 1 mps 619 mmHg 96%
    23:00 +9°C° 0 mm 1 mps 619 mmHg 96%

    3 June, Saturday

    Time Temperature Precipitation Wind Pressure Humidity
    00:00 +8°C° 0 mm 1 mps 618 mmHg 96%
    01:00 +7°C° 0 mm 1 mps 618 mmHg 96%
    02:00 +7°C° 0 mm 1 mps 618 mmHg 96%
    03:00 +7°C° 0 mm 1 mps 618 mmHg 96%
    04:00 +6°C° 0 mm 1 mps 617 mmHg 96%
    05:00 +8°C° 0 mm 1 mps 618 mmHg 92%
    06:00 +10°C° 0 mm 0 mps 619 mmHg 89%
    07:00 +12°C° 0 mm 0 mps 620 mmHg 86%
    08:00 +14°C° 0 mm 0 mps 621 mmHg 76%
    09:00 +16°C° 0 mm 0 mps 622 mmHg 65%
    10:00 +20°C° 0 mm 1 mps 622 mmHg 55%
    11:00 +21°C° 0.3 mm 1 mps 622 mmHg 55%
    12:00 +21°C° 0.3 mm 1 mps 622 mmHg 55%
    13:00 +21°C° 0.3 mm 1 mps 622 mmHg 56%
    14:00 +21°C° 0.6 mm 1 mps 621 mmHg 60%
    15:00 +20°C° 0.6 mm 1 mps 621 mmHg 64%
    16:00 +20°C° 0.6 mm 1 mps 621 mmHg 69%
    17:00 +18°C° 0.7 mm 1 mps 620 mmHg 75%
    18:00 +16°C° 0.7 mm 1 mps 620 mmHg 82%
    19:00 +15°C° 0.7 mm 1 mps 619 mmHg 88%
    20:00 +13°C° 0.5 mm 1 mps 619 mmHg 91%
    21:00 +12°C° 0.5 mm 1 mps 618 mmHg 93%
    22:00 +10°C° 0.5 mm 1 mps 618 mmHg 96%
    23:00 +10°C° 0.3 mm 1 mps 618 mmHg 96%
    Show more